Hourly Data Report for October 05, 2013

All times are specified in Local Standard Time (LST). Add 1 hour to adjust for Daylight Saving Time where and when it is observed.

OTTAWA INTL A
ONTARIO

45°19'00.000" N
75°40'00.000" W
114.90 m
6106001
71628
YOW

Download Data

Hourly Data (October 2013)
Hourly Data Report for October 5, 2013
Temp Definition
°C
Dew Point Temp Definition
°C
Rel Hum Definition
%
Wind Dir Definition
10's deg

Wind Spd Definition
km/h
Visibility Definition
km
Stn Press Definition
kPa
Hmdx Definition


Wind Chill Definition


Weather Definition


TIME
00:00 Legend Double Dagger 13.1 8.8 75 3 8 24.1 100.64     LegendNANA
01:00 Legend Double Dagger 12.3 7.6 73 1 9 24.1 100.65     Mostly Cloudy
02:00 Legend Double Dagger 12.4 9.3 81 5 8 24.1 100.66     LegendNANA
03:00 Legend Double Dagger 12.1 9.0 81 4 8 24.1 100.64     LegendNANA
04:00 Legend Double Dagger 11.7 8.9 83 5 8 24.1 100.64     Cloudy
05:00 Legend Double Dagger 12.2 8.5 78 5 6 24.1 100.69     LegendNANA
06:00 Legend Double Dagger 11.2 8.3 82 5 9 24.1 100.71     LegendNANA
07:00 Legend Double Dagger 11.6 8.7 82 5 13 24.1 100.73     Mostly Cloudy
08:00 Legend Double Dagger 13.3 8.4 72 5 16 24.1 100.78     LegendNANA
09:00 Legend Double Dagger 15.0 5.0 51 4 17 24.1 100.81     LegendNANA
10:00 Legend Double Dagger 15.1 5.1 51 7 10 24.1 100.80     Mostly Cloudy
11:00 Legend Double Dagger 16.7 4.8 45 7 10 24.1 100.80     LegendNANA
12:00 Legend Double Dagger 17.2 5.6 46 6 11 24.1 100.72     LegendNANA
13:00 Legend Double Dagger 18.2 5.5 43 6 12 24.1 100.63     Mainly Clear
14:00 Legend Double Dagger 18.4 7.0 47 36 13 24.1 100.63     LegendNANA
15:00 Legend Double Dagger 18.4 7.3 48 5 6 24.1 100.64     LegendNANA
16:00 Legend Double Dagger 17.3 7.7 53 5 7 24.1 100.61     Mostly Cloudy
17:00 Legend Double Dagger 15.6 6.9 56 9 7 24.1 100.62     LegendNANA
18:00 Legend Double Dagger 14.2 6.4 59 10 8 24.1 100.60     LegendNANA
19:00 Legend Double Dagger 13.7 7.3 65 6 8 24.1 100.64     Cloudy
20:00 Legend Double Dagger 14.0 5.7 57 6 5 24.1 100.69     LegendNANA
21:00 Legend Double Dagger 13.9 5.8 58 2 13 24.1 100.74     LegendNANA
22:00 Legend Double Dagger 12.9 6.8 66 5 13 24.1 100.72     Cloudy
23:00 Legend Double Dagger 11.6 5.9 68 5 15 24.1 100.71     LegendNANA

Notes on Data Quality.

Legend

  • E = Estimated
  • M = Missing
  • NA = Not Available
  • ‡ = Partner data that is not subject to review by the National Climate Archives
Date modified: